M I D A S
Marine Information and Data Acquisition System
Tripno 1682 of the Zeeleeuw from 2009-04-27 14:56:34 to 2009-04-28 03:48:09
Back to CruiseResearch ActivitiesStationsMapUnderway DataData graphs

EquipmentUnitsComment
TimeDGPSUTC
LatitudeDGPSDM.mWGS84
LongitudeDGPSDM.mWGS84
TemperatureSBE03/SBE38deg celciusITS90
ConductivitySBE21S/mITS90
SalinitySBE21 Practical Salinity Units
ChlorophylAChelsea fluorimeterg/lCalibrated in Aceton
Missing or incorrect values are displayed as -999
Sea surface data collected by the RV Zeeleeuw from 2009-04-27 09:56:35 to 2009-04-28 08:48:07
                                                                                    Next 1000 lines
Time Latitude Longitude Temperature Conductivity Salinity ChlorophylA
2009-04-27 09:56:50 51°10.51 2°39.398 -999 -999 -999 -999
2009-04-27 09:57:00 51°10.497 2°39.347 -999 -999 -999 -999
2009-04-27 09:57:10 51°10.485 2°39.295 -999 -999 -999 -999
2009-04-27 09:57:20 51°10.473 2°39.243 -999 -999 -999 -999
2009-04-27 09:57:30 51°10.461 2°39.192 -999 -999 -999 -999
2009-04-27 09:57:40 51°10.449 2°39.14 -999 -999 -999 -999
2009-04-27 09:57:50 51°10.436 2°39.089 -999 -999 -999 -999
2009-04-27 09:58:00 51°10.423 2°39.037 -999 -999 -999 -999
2009-04-27 09:58:10 51°10.411 2°38.986 -999 -999 -999 -999
2009-04-27 09:58:20 51°10.398 2°38.934 -999 -999 -999 -999
2009-04-27 09:58:30 51°10.386 2°38.882 -999 -999 -999 -999
2009-04-27 09:58:40 51°10.373 2°38.831 -999 -999 -999 -999
2009-04-27 09:58:50 51°10.361 2°38.779 -999 -999 -999 -999
2009-04-27 09:59:00 51°10.349 2°38.727 -999 -999 -999 -999
2009-04-27 09:59:10 51°10.336 2°38.676 -999 -999 -999 -999
2009-04-27 09:59:20 51°10.323 2°38.624 -999 -999 -999 -999
2009-04-27 09:59:30 51°10.311 2°38.572 -999 -999 -999 -999
2009-04-27 09:59:40 51°10.299 2°38.52 -999 -999 -999 -999
2009-04-27 09:59:50 51°10.286 2°38.468 -999 -999 -999 -999
2009-04-27 10:00:00 51°10.274 2°38.417 -999 -999 -999 -999
2009-04-27 10:00:10 51°10.264 2°38.364 -999 -999 -999 -999
2009-04-27 10:00:20 51°10.255 2°38.311 -999 -999 -999 -999
2009-04-27 10:00:30 51°10.246 2°38.257 -999 -999 -999 -999
2009-04-27 10:00:40 51°10.238 2°38.204 -999 -999 -999 -999
2009-04-27 10:00:50 51°10.23 2°38.149 -999 -999 -999 -999
2009-04-27 10:01:00 51°10.222 2°38.096 -999 -999 -999 -999
2009-04-27 10:01:10 51°10.215 2°38.042 -999 -999 -999 -999
2009-04-27 10:01:20 51°10.208 2°37.988 -999 -999 -999 -999
2009-04-27 10:01:30 51°10.202 2°37.934 -999 -999 -999 -999
2009-04-27 10:01:40 51°10.194 2°37.88 -999 -999 -999 -999
2009-04-27 10:01:50 51°10.188 2°37.826 -999 -999 -999 -999
2009-04-27 10:02:00 51°10.18 2°37.773 -999 -999 -999 -999
2009-04-27 10:02:10 51°10.173 2°37.719 -999 -999 -999 -999
2009-04-27 10:02:20 51°10.165 2°37.665 -999 -999 -999 -999
2009-04-27 10:02:30 51°10.158 2°37.612 -999 -999 -999 -999
2009-04-27 10:02:40 51°10.151 2°37.558 -999 -999 -999 -999
2009-04-27 10:02:50 51°10.145 2°37.504 -999 -999 -999 -999
2009-04-27 10:03:00 51°10.14 2°37.45 -999 -999 -999 -999
2009-04-27 10:03:10 51°10.134 2°37.396 -999 -999 -999 -999
2009-04-27 10:03:20 51°10.129 2°37.342 -999 -999 -999 -999
2009-04-27 10:03:30 51°10.123 2°37.287 -999 -999 -999 -999
2009-04-27 10:03:40 51°10.117 2°37.234 -999 -999 -999 -999
2009-04-27 10:03:50 51°10.112 2°37.18 -999 -999 -999 -999
2009-04-27 10:04:00 51°10.106 2°37.125 -999 -999 -999 -999
2009-04-27 10:04:10 51°10.101 2°37.071 -999 -999 -999 -999
2009-04-27 10:04:20 51°10.095 2°37.017 -999 -999 -999 -999
2009-04-27 10:04:30 51°10.09 2°36.963 -999 -999 -999 -999
2009-04-27 10:04:40 51°10.085 2°36.909 -999 -999 -999 -999
2009-04-27 10:04:50 51°10.08 2°36.855 -999 -999 -999 -999
2009-04-27 10:05:00 51°10.075 2°36.8 -999 -999 -999 -999
2009-04-27 10:05:10 51°10.072 2°36.746 -999 -999 -999 -999
2009-04-27 10:05:20 51°10.068 2°36.691 -999 -999 -999 -999
2009-04-27 10:05:30 51°10.065 2°36.637 -999 -999 -999 -999
2009-04-27 10:05:40 51°10.061 2°36.582 -999 -999 -999 -999
2009-04-27 10:05:50 51°10.058 2°36.528 -999 -999 -999 -999
2009-04-27 10:06:00 51°10.055 2°36.474 -999 -999 -999 -999
2009-04-27 10:06:10 51°10.055 2°36.414 -999 -999 -999 -999
2009-04-27 10:06:20 51°10.057 2°36.36 -999 -999 -999 -999
2009-04-27 10:06:30 51°10.061 2°36.306 -999 -999 -999 -999
2009-04-27 10:06:40 51°10.069 2°36.253 -999 -999 -999 -999
2009-04-27 10:06:50 51°10.079 2°36.201 -999 -999 -999 -999
2009-04-27 10:07:00 51°10.091 2°36.151 -999 -999 -999 -999
2009-04-27 10:07:10 51°10.103 2°36.105 -999 -999 -999 -999
2009-04-27 10:07:20 51°10.117 2°36.057 -999 -999 -999 -999
2009-04-27 10:07:30 51°10.135 2°36.012 -999 -999 -999 -999
2009-04-27 10:07:40 51°10.154 2°35.971 -999 -999 -999 -999
2009-04-27 10:07:50 51°10.177 2°35.933 -999 -999 -999 -999
2009-04-27 10:08:00 51°10.201 2°35.901 -999 -999 -999 -999
2009-04-27 10:08:10 51°10.227 2°35.874 -999 -999 -999 -999
2009-04-27 10:08:20 51°10.256 2°35.856 -999 -999 -999 -999
2009-04-27 10:08:30 51°10.285 2°35.841 -999 -999 -999 -999
2009-04-27 10:08:40 51°10.315 2°35.834 -999 -999 -999 -999
2009-04-27 10:08:50 51°10.345 2°35.833 -999 -999 -999 -999
2009-04-27 10:09:00 51°10.375 2°35.836 -999 -999 -999 -999
2009-04-27 10:09:10 51°10.403 2°35.847 -999 -999 -999 -999
2009-04-27 10:09:20 51°10.431 2°35.864 -999 -999 -999 -999
2009-04-27 10:09:30 51°10.458 2°35.885 -999 -999 -999 -999
2009-04-27 10:09:40 51°10.484 2°35.906 -999 -999 -999 -999
2009-04-27 10:09:50 51°10.51 2°35.929 -999 -999 -999 -999
2009-04-27 10:10:00 51°10.536 2°35.953 -999 -999 -999 -999
2009-04-27 10:10:10 51°10.562 2°35.978 -999 -999 -999 -999
2009-04-27 10:10:20 51°10.588 2°36.003 -999 -999 -999 -999
2009-04-27 10:10:30 51°10.613 2°36.029 -999 -999 -999 -999
2009-04-27 10:10:40 51°10.639 2°36.056 -999 -999 -999 -999
2009-04-27 10:10:50 51°10.664 2°36.083 -999 -999 -999 -999
2009-04-27 10:11:00 51°10.689 2°36.109 -999 -999 -999 -999
2009-04-27 10:11:10 51°10.718 2°36.136 -999 -999 -999 -999
2009-04-27 10:11:20 51°10.744 2°36.159 -999 -999 -999 -999
2009-04-27 10:11:30 51°10.77 2°36.181 -999 -999 -999 -999
2009-04-27 10:11:40 51°10.797 2°36.202 -999 -999 -999 -999
2009-04-27 10:11:50 51°10.824 2°36.223 -999 -999 -999 -999
2009-04-27 10:12:00 51°10.851 2°36.244 -999 -999 -999 -999
2009-04-27 10:12:10 51°10.875 2°36.264 -999 -999 -999 -999
2009-04-27 10:12:20 51°10.902 2°36.285 -999 -999 -999 -999
2009-04-27 10:12:30 51°10.929 2°36.306 -999 -999 -999 -999
2009-04-27 10:12:40 51°10.956 2°36.327 -999 -999 -999 -999
2009-04-27 10:12:50 51°10.983 2°36.348 -999 -999 -999 -999
2009-04-27 10:13:00 51°11.01 2°36.369 -999 -999 -999 -999
2009-04-27 10:13:10 51°11.037 2°36.391 -999 -999 -999 -999
2009-04-27 10:13:20 51°11.065 2°36.412 -999 -999 -999 -999
2009-04-27 10:13:30 51°11.092 2°36.433 -999 -999 -999 -999
2009-04-27 10:13:40 51°11.119 2°36.454 -999 -999 -999 -999
2009-04-27 10:13:50 51°11.146 2°36.476 -999 -999 -999 -999
2009-04-27 10:14:00 51°11.173 2°36.497 -999 -999 -999 -999
2009-04-27 10:14:10 51°11.2 2°36.517 -999 -999 -999 -999
2009-04-27 10:14:20 51°11.228 2°36.539 -999 -999 -999 -999
2009-04-27 10:14:30 51°11.255 2°36.56 -999 -999 -999 -999
2009-04-27 10:14:40 51°11.282 2°36.581 -999 -999 -999 -999
2009-04-27 10:14:50 51°11.309 2°36.602 -999 -999 -999 -999
2009-04-27 10:15:00 51°11.336 2°36.624 -999 -999 -999 -999
2009-04-27 10:15:10 51°11.364 2°36.644 -999 -999 -999 -999
2009-04-27 10:15:20 51°11.394 2°36.667 -999 -999 -999 -999
2009-04-27 10:15:30 51°11.418 2°36.685 -999 -999 -999 -999
2009-04-27 10:15:40 51°11.445 2°36.706 -999 -999 -999 -999
2009-04-27 10:15:50 51°11.472 2°36.728 -999 -999 -999 -999
2009-04-27 10:16:00 51°11.499 2°36.75 -999 -999 -999 -999
2009-04-27 10:16:10 51°11.527 2°36.77 -999 -999 -999 -999
2009-04-27 10:16:20 51°11.554 2°36.791 -999 -999 -999 -999
2009-04-27 10:16:30 51°11.581 2°36.813 -999 -999 -999 -999
2009-04-27 10:16:40 51°11.608 2°36.834 -999 -999 -999 -999
2009-04-27 10:16:50 51°11.635 2°36.855 -999 -999 -999 -999
2009-04-27 10:17:00 51°11.662 2°36.877 -999 -999 -999 -999
2009-04-27 10:17:10 51°11.688 2°36.898 -999 -999 -999 -999
2009-04-27 10:17:20 51°11.716 2°36.917 -999 -999 -999 -999
2009-04-27 10:17:30 51°11.744 2°36.935 -999 -999 -999 -999
2009-04-27 10:17:40 51°11.772 2°36.952 -999 -999 -999 -999
2009-04-27 10:17:50 51°11.8 2°36.968 -999 -999 -999 -999
2009-04-27 10:18:00 51°11.829 2°36.983 -999 -999 -999 -999
2009-04-27 10:18:10 51°11.857 2°36.998 -999 -999 -999 -999
2009-04-27 10:18:20 51°11.886 2°37.012 -999 -999 -999 -999
2009-04-27 10:18:30 51°11.915 2°37.024 -999 -999 -999 -999
2009-04-27 10:18:40 51°11.945 2°37.036 -999 -999 -999 -999
2009-04-27 10:18:50 51°11.974 2°37.049 -999 -999 -999 -999
2009-04-27 10:19:00 51°12.003 2°37.062 -999 -999 -999 -999
2009-04-27 10:19:10 51°12.032 2°37.076 -999 -999 -999 -999
2009-04-27 10:19:20 51°12.061 2°37.09 -999 -999 -999 -999
2009-04-27 10:19:30 51°12.09 2°37.104 -999 -999 -999 -999
2009-04-27 10:19:40 51°12.12 2°37.117 -999 -999 -999 -999
2009-04-27 10:19:50 51°12.149 2°37.131 -999 -999 -999 -999
2009-04-27 10:20:00 51°12.178 2°37.145 -999 -999 -999 -999
2009-04-27 10:20:10 51°12.207 2°37.159 -999 -999 -999 -999
2009-04-27 10:20:20 51°12.236 2°37.173 -999 -999 -999 -999
2009-04-27 10:20:30 51°12.265 2°37.187 -999 -999 -999 -999
2009-04-27 10:20:40 51°12.294 2°37.2 -999 -999 -999 -999
2009-04-27 10:20:50 51°12.324 2°37.213 -999 -999 -999 -999
2009-04-27 10:21:00 51°12.352 2°37.228 -999 -999 -999 -999
2009-04-27 10:21:10 51°12.381 2°37.241 -999 -999 -999 -999
2009-04-27 10:21:20 51°12.41 2°37.254 -999 -999 -999 -999
2009-04-27 10:21:30 51°12.439 2°37.269 -999 -999 -999 -999
2009-04-27 10:21:40 51°12.468 2°37.283 -999 -999 -999 -999
2009-04-27 10:21:50 51°12.497 2°37.296 -999 -999 -999 -999
2009-04-27 10:22:00 51°12.526 2°37.31 -999 -999 -999 -999
2009-04-27 10:22:10 51°12.555 2°37.324 -999 -999 -999 -999
2009-04-27 10:22:20 51°12.585 2°37.337 -999 -999 -999 -999
2009-04-27 10:22:30 51°12.614 2°37.35 -999 -999 -999 -999
2009-04-27 10:22:40 51°12.643 2°37.359 -999 -999 -999 -999
2009-04-27 10:22:50 51°12.673 2°37.365 -999 -999 -999 -999
2009-04-27 10:23:00 51°12.703 2°37.366 -999 -999 -999 -999
2009-04-27 10:23:10 51°12.736 2°37.363 -999 -999 -999 -999
2009-04-27 10:23:20 51°12.767 2°37.358 -999 -999 -999 -999
2009-04-27 10:23:30 51°12.797 2°37.352 -999 -999 -999 -999
2009-04-27 10:23:40 51°12.828 2°37.345 -999 -999 -999 -999
2009-04-27 10:23:50 51°12.858 2°37.338 -999 -999 -999 -999
2009-04-27 10:24:00 51°12.889 2°37.331 -999 -999 -999 -999
2009-04-27 10:24:10 51°12.917 2°37.324 -999 -999 -999 -999
2009-04-27 10:24:20 51°12.948 2°37.317 -999 -999 -999 -999
2009-04-27 10:24:30 51°12.979 2°37.311 -999 -999 -999 -999
2009-04-27 10:24:40 51°13.01 2°37.304 -999 -999 -999 -999
2009-04-27 10:24:50 51°13.041 2°37.298 -999 -999 -999 -999
2009-04-27 10:25:00 51°13.072 2°37.293 -999 -999 -999 -999
2009-04-27 10:25:10 51°13.103 2°37.287 -999 -999 -999 -999
2009-04-27 10:25:20 51°13.134 2°37.283 -999 -999 -999 -999
2009-04-27 10:25:30 51°13.165 2°37.279 -999 -999 -999 -999
2009-04-27 10:25:40 51°13.196 2°37.274 -999 -999 -999 -999
2009-04-27 10:25:50 51°13.227 2°37.269 -999 -999 -999 -999
2009-04-27 10:26:00 51°13.258 2°37.265 -999 -999 -999 -999
2009-04-27 10:26:10 51°13.289 2°37.26 -999 -999 -999 -999
2009-04-27 10:26:20 51°13.32 2°37.255 -999 -999 -999 -999
2009-04-27 10:26:30 51°13.351 2°37.251 -999 -999 -999 -999
2009-04-27 10:26:40 51°13.382 2°37.247 -999 -999 -999 -999
2009-04-27 10:26:50 51°13.413 2°37.242 -999 -999 -999 -999
2009-04-27 10:27:00 51°13.444 2°37.238 -999 -999 -999 -999
2009-04-27 10:27:10 51°13.475 2°37.233 -999 -999 -999 -999
2009-04-27 10:27:20 51°13.505 2°37.229 -999 -999 -999 -999
2009-04-27 10:27:30 51°13.536 2°37.224 -999 -999 -999 -999
2009-04-27 10:27:40 51°13.566 2°37.216 -999 -999 -999 -999
2009-04-27 10:27:50 51°13.597 2°37.205 -999 -999 -999 -999
2009-04-27 10:28:00 51°13.628 2°37.19 -999 -999 -999 -999
2009-04-27 10:28:10 51°13.658 2°37.172 -999 -999 -999 -999
2009-04-27 10:28:20 51°13.688 2°37.152 -999 -999 -999 -999
2009-04-27 10:28:30 51°13.716 2°37.128 -999 -999 -999 -999
2009-04-27 10:28:40 51°13.744 2°37.103 -999 -999 -999 -999
2009-04-27 10:28:50 51°13.772 2°37.074 -999 -999 -999 -999
2009-04-27 10:29:00 51°13.799 2°37.046 -999 -999 -999 -999
2009-04-27 10:29:10 51°13.825 2°37.015 -999 -999 -999 -999
2009-04-27 10:29:20 51°13.851 2°36.984 -999 -999 -999 -999
2009-04-27 10:29:30 51°13.878 2°36.953 -999 -999 -999 -999
2009-04-27 10:29:40 51°13.905 2°36.924 -999 -999 -999 -999
2009-04-27 10:29:50 51°13.932 2°36.895 -999 -999 -999 -999
2009-04-27 10:30:00 51°13.958 2°36.866 -999 -999 -999 -999
2009-04-27 10:30:10 51°13.985 2°36.836 -999 -999 -999 -999
2009-04-27 10:30:20 51°14.012 2°36.807 -999 -999 -999 -999
2009-04-27 10:30:30 51°14.037 2°36.777 -999 -999 -999 -999
2009-04-27 10:30:40 51°14.064 2°36.747 -999 -999 -999 -999
2009-04-27 10:30:50 51°14.091 2°36.718 -999 -999 -999 -999
2009-04-27 10:31:00 51°14.118 2°36.689 -999 -999 -999 -999
2009-04-27 10:31:10 51°14.145 2°36.661 -999 -999 -999 -999
2009-04-27 10:31:20 51°14.172 2°36.634 -999 -999 -999 -999
2009-04-27 10:31:30 51°14.199 2°36.606 -999 -999 -999 -999
2009-04-27 10:31:40 51°14.226 2°36.579 -999 -999 -999 -999
2009-04-27 10:31:50 51°14.253 2°36.553 -999 -999 -999 -999
2009-04-27 10:32:00 51°14.28 2°36.525 -999 -999 -999 -999
2009-04-27 10:32:10 51°14.31 2°36.495 -999 -999 -999 -999
2009-04-27 10:32:20 51°14.335 2°36.471 -999 -999 -999 -999
2009-04-27 10:32:30 51°14.362 2°36.445 -999 -999 -999 -999
2009-04-27 10:32:40 51°14.39 2°36.419 -999 -999 -999 -999
2009-04-27 10:32:50 51°14.417 2°36.392 -999 -999 -999 -999
2009-04-27 10:33:00 51°14.445 2°36.367 -999 -999 -999 -999
2009-04-27 10:33:10 51°14.473 2°36.34 -999 -999 -999 -999
2009-04-27 10:33:20 51°14.501 2°36.315 -999 -999 -999 -999
2009-04-27 10:33:30 51°14.529 2°36.288 -999 -999 -999 -999
2009-04-27 10:33:40 51°14.557 2°36.262 -999 -999 -999 -999
2009-04-27 10:33:50 51°14.585 2°36.237 -999 -999 -999 -999
2009-04-27 10:34:00 51°14.614 2°36.216 -999 -999 -999 -999
2009-04-27 10:34:10 51°14.644 2°36.196 -999 -999 -999 -999
2009-04-27 10:34:20 51°14.674 2°36.179 -999 -999 -999 -999
2009-04-27 10:34:30 51°14.705 2°36.163 -999 -999 -999 -999
2009-04-27 10:34:40 51°14.736 2°36.152 -999 -999 -999 -999
2009-04-27 10:34:50 51°14.767 2°36.143 -999 -999 -999 -999
2009-04-27 10:35:00 51°14.799 2°36.139 -999 -999 -999 -999
2009-04-27 10:35:10 51°14.831 2°36.141 -999 -999 -999 -999
2009-04-27 10:35:20 51°14.862 2°36.15 -999 -999 -999 -999
2009-04-27 10:35:30 51°14.892 2°36.161 -999 -999 -999 -999
2009-04-27 10:35:40 51°14.922 2°36.174 -999 -999 -999 -999
2009-04-27 10:35:50 51°14.953 2°36.187 -999 -999 -999 -999
2009-04-27 10:36:00 51°14.983 2°36.201 -999 -999 -999 -999
2009-04-27 10:36:10 51°15.012 2°36.218 -999 -999 -999 -999
2009-04-27 10:36:20 51°15.042 2°36.233 -999 -999 -999 -999
2009-04-27 10:36:30 51°15.072 2°36.249 -999 -999 -999 -999
2009-04-27 10:36:40 51°15.102 2°36.264 -999 -999 -999 -999
2009-04-27 10:36:50 51°15.132 2°36.279 -999 -999 -999 -999
2009-04-27 10:37:00 51°15.163 2°36.295 -999 -999 -999 -999
2009-04-27 10:37:10 51°15.193 2°36.309 -999 -999 -999 -999
2009-04-27 10:37:20 51°15.226 2°36.324 -999 -999 -999 -999
2009-04-27 10:37:30 51°15.253 2°36.337 -999 -999 -999 -999
2009-04-27 10:37:40 51°15.283 2°36.352 -999 -999 -999 -999
2009-04-27 10:37:50 51°15.313 2°36.366 -999 -999 -999 -999
2009-04-27 10:38:00 51°15.343 2°36.381 -999 -999 -999 -999
2009-04-27 10:38:10 51°15.374 2°36.396 -999 -999 -999 -999
2009-04-27 10:38:20 51°15.404 2°36.411 -999 -999 -999 -999
2009-04-27 10:38:30 51°15.435 2°36.425 -999 -999 -999 -999
2009-04-27 10:38:40 51°15.465 2°36.438 -999 -999 -999 -999
2009-04-27 10:38:50 51°15.496 2°36.452 -999 -999 -999 -999
2009-04-27 10:39:00 51°15.526 2°36.466 -999 -999 -999 -999
2009-04-27 10:39:10 51°15.557 2°36.479 -999 -999 -999 -999
2009-04-27 10:39:20 51°15.588 2°36.493 -999 -999 -999 -999
2009-04-27 10:39:30 51°15.618 2°36.507 -999 -999 -999 -999
2009-04-27 10:39:40 51°15.649 2°36.519 -999 -999 -999 -999
2009-04-27 10:39:50 51°15.681 2°36.53 -999 -999 -999 -999
2009-04-27 10:40:00 51°15.711 2°36.543 -999 -999 -999 -999
2009-04-27 10:40:10 51°15.741 2°36.556 -999 -999 -999 -999
2009-04-27 10:40:20 51°15.772 2°36.569 -999 -999 -999 -999
2009-04-27 10:40:30 51°15.803 2°36.581 -999 -999 -999 -999
2009-04-27 10:40:40 51°15.834 2°36.593 -999 -999 -999 -999
2009-04-27 10:40:50 51°15.865 2°36.604 -999 -999 -999 -999
2009-04-27 10:41:00 51°15.895 2°36.615 -999 -999 -999 -999
2009-04-27 10:41:10 51°15.926 2°36.628 -999 -999 -999 -999
2009-04-27 10:41:20 51°15.957 2°36.639 -999 -999 -999 -999
2009-04-27 10:41:30 51°15.986 2°36.652 -999 -999 -999 -999
2009-04-27 10:41:40 51°16.014 2°36.663 -999 -999 -999 -999
2009-04-27 10:41:50 51°16.04 2°36.672 -999 -999 -999 -999
2009-04-27 10:42:00 51°16.065 2°36.68 -999 -999 -999 -999
2009-04-27 10:42:10 51°16.088 2°36.688 -999 -999 -999 -999
2009-04-27 10:42:20 51°16.11 2°36.695 -999 -999 -999 -999
2009-04-27 10:42:30 51°16.131 2°36.702 -999 -999 -999 -999
2009-04-27 10:42:40 51°16.153 2°36.708 -999 -999 -999 -999
2009-04-27 10:42:50 51°16.175 2°36.715 -999 -999 -999 -999
2009-04-27 10:43:00 51°16.197 2°36.721 -999 -999 -999 -999
2009-04-27 10:43:10 51°16.22 2°36.729 -999 -999 -999 -999
2009-04-27 10:43:20 51°16.243 2°36.736 -999 -999 -999 -999
2009-04-27 10:43:30 51°16.266 2°36.743 -999 -999 -999 -999
2009-04-27 10:43:40 51°16.289 2°36.75 -999 -999 -999 -999
2009-04-27 10:43:50 51°16.311 2°36.757 -999 -999 -999 -999
2009-04-27 10:44:00 51°16.334 2°36.763 -999 -999 -999 -999
2009-04-27 10:44:10 51°16.357 2°36.77 -999 -999 -999 -999
2009-04-27 10:44:20 51°16.383 2°36.777 -999 -999 -999 -999
2009-04-27 10:44:30 51°16.403 2°36.783 -999 -999 -999 -999
2009-04-27 10:44:40 51°16.428 2°36.79 -999 -999 -999 -999
2009-04-27 10:44:50 51°16.449 2°36.796 -999 -999 -999 -999
2009-04-27 10:45:00 51°16.474 2°36.803 -999 -999 -999 -999
2009-04-27 10:45:10 51°16.494 2°36.809 -999 -999 -999 -999
2009-04-27 10:45:20 51°16.511 2°36.814 -999 -999 -999 -999
2009-04-27 10:45:30 51°16.526 2°36.817 -999 -999 -999 -999
2009-04-27 10:45:40 51°16.54 2°36.82 -999 -999 -999 -999
2009-04-27 10:45:50 51°16.553 2°36.822 -999 -999 -999 -999
2009-04-27 10:46:00 51°16.564 2°36.824 -999 -999 -999 -999
2009-04-27 10:46:10 51°16.573 2°36.824 -999 -999 -999 -999
2009-04-27 10:46:20 51°16.583 2°36.823 -999 -999 -999 -999
2009-04-27 10:46:30 51°16.591 2°36.822 -999 -999 -999 -999
2009-04-27 10:46:40 51°16.599 2°36.82 -999 -999 -999 -999
2009-04-27 10:46:50 51°16.606 2°36.818 -999 -999 -999 -999
2009-04-27 10:47:00 51°16.611 2°36.816 -999 -999 -999 -999
2009-04-27 10:47:10 51°16.616 2°36.814 -999 -999 -999 -999
2009-04-27 10:47:20 51°16.62 2°36.812 -999 -999 -999 -999
2009-04-27 10:47:30 51°16.624 2°36.81 -999 -999 -999 -999
2009-04-27 10:47:40 51°16.627 2°36.809 -999 -999 -999 -999
2009-04-27 10:47:50 51°16.631 2°36.807 -999 -999 -999 -999
2009-04-27 10:48:00 51°16.634 2°36.806 -999 -999 -999 -999
2009-04-27 10:48:10 51°16.637 2°36.804 -999 -999 -999 -999
2009-04-27 10:48:20 51°16.64 2°36.802 -999 -999 -999 -999
2009-04-27 10:48:30 51°16.642 2°36.8 -999 -999 -999 -999
2009-04-27 10:48:40 51°16.644 2°36.797 -999 -999 -999 -999
2009-04-27 10:48:50 51°16.646 2°36.795 -999 -999 -999 -999
2009-04-27 10:49:00 51°16.648 2°36.792 -999 -999 -999 -999
2009-04-27 10:49:10 51°16.65 2°36.79 -999 -999 -999 -999
2009-04-27 10:49:20 51°16.651 2°36.788 -999 -999 -999 -999
2009-04-27 10:49:30 51°16.652 2°36.785 -999 -999 -999 -999
2009-04-27 10:49:40 51°16.653 2°36.783 -999 -999 -999 -999
2009-04-27 10:49:50 51°16.654 2°36.781 -999 -999 -999 -999
2009-04-27 10:50:00 51°16.655 2°36.779 -999 -999 -999 -999
2009-04-27 10:50:10 51°16.656 2°36.776 -999 -999 -999 -999
2009-04-27 10:50:20 51°16.657 2°36.774 -999 -999 -999 -999
2009-04-27 10:50:30 51°16.658 2°36.772 -999 -999 -999 -999
2009-04-27 10:50:40 51°16.659 2°36.77 -999 -999 -999 -999
2009-04-27 10:50:50 51°16.66 2°36.768 -999 -999 -999 -999
2009-04-27 10:51:00 51°16.661 2°36.766 -999 -999 -999 -999
2009-04-27 10:51:10 51°16.662 2°36.764 -999 -999 -999 -999
2009-04-27 10:51:20 51°16.662 2°36.762 -999 -999 -999 -999
2009-04-27 10:51:30 51°16.663 2°36.759 -999 -999 -999 -999
2009-04-27 10:51:40 51°16.663 2°36.757 -999 -999 -999 -999
2009-04-27 10:51:50 51°16.664 2°36.754 -999 -999 -999 -999
2009-04-27 10:52:00 51°16.664 2°36.753 -999 -999 -999 -999
2009-04-27 10:52:10 51°16.664 2°36.751 -999 -999 -999 -999
2009-04-27 10:52:20 51°16.665 2°36.75 -999 -999 -999 -999
2009-04-27 10:52:30 51°16.665 2°36.748 -999 -999 -999 -999
2009-04-27 10:52:40 51°16.665 2°36.747 -999 -999 -999 -999
2009-04-27 10:52:50 51°16.666 2°36.746 -999 -999 -999 -999
2009-04-27 10:53:00 51°16.666 2°36.745 -999 -999 -999 -999
2009-04-27 10:53:10 51°16.666 2°36.744 -999 -999 -999 -999
2009-04-27 10:53:20 51°16.667 2°36.744 -999 -999 -999 -999
2009-04-27 10:53:30 51°16.667 2°36.743 -999 -999 -999 -999
2009-04-27 10:53:40 51°16.667 2°36.743 -999 -999 -999 -999
2009-04-27 10:53:50 51°16.667 2°36.742 -999 -999 -999 -999
2009-04-27 10:54:00 51°16.667 2°36.741 -999 -999 -999 -999
2009-04-27 10:54:10 51°16.667 2°36.741 -999 -999 -999 -999
2009-04-27 10:54:20 51°16.668 2°36.74 -999 -999 -999 -999
2009-04-27 10:54:30 51°16.668 2°36.739 -999 -999 -999 -999
2009-04-27 10:54:40 51°16.669 2°36.736 -999 -999 -999 -999
2009-04-27 10:54:50 51°16.671 2°36.732 -999 -999 -999 -999
2009-04-27 10:55:00 51°16.674 2°36.727 -999 -999 -999 -999
2009-04-27 10:55:10 51°16.679 2°36.717 -999 -999 -999 -999
2009-04-27 10:55:20 51°16.688 2°36.702 -999 -999 -999 -999
2009-04-27 10:55:30 51°16.701 2°36.687 -999 -999 -999 -999
2009-04-27 10:55:40 51°16.718 2°36.671 -999 -999 -999 -999
2009-04-27 10:55:50 51°16.739 2°36.652 -999 -999 -999 -999
2009-04-27 10:56:00 51°16.762 2°36.63 -999 -999 -999 -999
2009-04-27 10:56:10 51°16.787 2°36.607 -999 -999 -999 -999
2009-04-27 10:56:20 51°16.813 2°36.582 -999 -999 -999 -999
2009-04-27 10:56:30 51°16.84 2°36.558 -999 -999 -999 -999
2009-04-27 10:56:40 51°16.867 2°36.533 -999 -999 -999 -999
2009-04-27 10:56:50 51°16.895 2°36.51 -999 -999 -999 -999
2009-04-27 10:57:00 51°16.922 2°36.486 -999 -999 -999 -999
2009-04-27 10:57:10 51°16.949 2°36.46 -999 -999 -999 -999
2009-04-27 10:57:20 51°16.976 2°36.436 -999 -999 -999 -999
2009-04-27 10:57:30 51°17.003 2°36.41 -999 -999 -999 -999
2009-04-27 10:57:40 51°17.029 2°36.382 -999 -999 -999 -999
2009-04-27 10:57:50 51°17.054 2°36.354 -999 -999 -999 -999
2009-04-27 10:58:00 51°17.079 2°36.323 -999 -999 -999 -999
2009-04-27 10:58:10 51°17.104 2°36.292 -999 -999 -999 -999
2009-04-27 10:58:20 51°17.129 2°36.261 -999 -999 -999 -999
2009-04-27 10:58:30 51°17.154 2°36.231 -999 -999 -999 -999
2009-04-27 10:58:40 51°17.179 2°36.2 -999 -999 -999 -999
2009-04-27 10:58:50 51°17.205 2°36.171 -999 -999 -999 -999
2009-04-27 10:59:00 51°17.23 2°36.14 -999 -999 -999 -999
2009-04-27 10:59:10 51°17.258 2°36.108 -999 -999 -999 -999
2009-04-27 10:59:20 51°17.283 2°36.078 -999 -999 -999 -999
2009-04-27 10:59:30 51°17.308 2°36.048 -999 -999 -999 -999
2009-04-27 10:59:40 51°17.333 2°36.019 -999 -999 -999 -999
2009-04-27 10:59:50 51°17.358 2°35.991 -999 -999 -999 -999
2009-04-27 11:00:00 51°17.382 2°35.96 -999 -999 -999 -999
2009-04-27 11:00:10 51°17.406 2°35.927 -999 -999 -999 -999
2009-04-27 11:00:20 51°17.426 2°35.896 -999 -999 -999 -999
2009-04-27 11:00:30 51°17.448 2°35.861 -999 -999 -999 -999
2009-04-27 11:00:40 51°17.469 2°35.825 -999 -999 -999 -999
2009-04-27 11:00:50 51°17.491 2°35.79 -999 -999 -999 -999
2009-04-27 11:01:00 51°17.512 2°35.754 -999 -999 -999 -999
2009-04-27 11:01:10 51°17.534 2°35.719 -999 -999 -999 -999
2009-04-27 11:01:20 51°17.555 2°35.683 -999 -999 -999 -999
2009-04-27 11:01:30 51°17.576 2°35.646 -999 -999 -999 -999
2009-04-27 11:01:40 51°17.595 2°35.607 -999 -999 -999 -999
2009-04-27 11:01:50 51°17.613 2°35.567 -999 -999 -999 -999
2009-04-27 11:02:00 51°17.631 2°35.526 -999 -999 -999 -999
2009-04-27 11:02:10 51°17.649 2°35.486 -999 -999 -999 -999
2009-04-27 11:02:20 51°17.667 2°35.445 -999 -999 -999 -999
2009-04-27 11:02:30 51°17.685 2°35.403 -999 -999 -999 -999
2009-04-27 11:02:40 51°17.703 2°35.361 -999 -999 -999 -999
2009-04-27 11:02:50 51°17.72 2°35.32 -999 -999 -999 -999
2009-04-27 11:03:00 51°17.736 2°35.276 -999 -999 -999 -999
2009-04-27 11:03:10 51°17.75 2°35.231 -999 -999 -999 -999
2009-04-27 11:03:20 51°17.762 2°35.184 -999 -999 -999 -999
2009-04-27 11:03:30 51°17.774 2°35.135 -999 -999 -999 -999
2009-04-27 11:03:40 51°17.785 2°35.087 -999 -999 -999 -999
2009-04-27 11:03:50 51°17.796 2°35.037 -999 -999 -999 -999
2009-04-27 11:04:00 51°17.805 2°34.989 -999 -999 -999 -999
2009-04-27 11:04:10 51°17.812 2°34.938 -999 -999 -999 -999
2009-04-27 11:04:20 51°17.817 2°34.887 -999 -999 -999 -999
2009-04-27 11:04:30 51°17.821 2°34.836 -999 -999 -999 -999
2009-04-27 11:04:40 51°17.822 2°34.784 -999 -999 -999 -999
2009-04-27 11:04:50 51°17.824 2°34.731 -999 -999 -999 -999
2009-04-27 11:05:00 51°17.825 2°34.678 -999 -999 -999 -999
2009-04-27 11:05:10 51°17.826 2°34.625 -999 -999 -999 -999
2009-04-27 11:05:20 51°17.827 2°34.572 -999 -999 -999 -999
2009-04-27 11:05:30 51°17.828 2°34.519 -999 -999 -999 -999
2009-04-27 11:05:40 51°17.829 2°34.465 -999 -999 -999 -999
2009-04-27 11:05:50 51°17.831 2°34.412 -999 -999 -999 -999
2009-04-27 11:06:00 51°17.832 2°34.353 -999 -999 -999 -999
2009-04-27 11:06:10 51°17.834 2°34.299 -999 -999 -999 -999
2009-04-27 11:06:20 51°17.836 2°34.246 -999 -999 -999 -999
2009-04-27 11:06:30 51°17.837 2°34.193 -999 -999 -999 -999
2009-04-27 11:06:40 51°17.836 2°34.14 -999 -999 -999 -999
2009-04-27 11:06:50 51°17.833 2°34.088 -999 -999 -999 -999
2009-04-27 11:07:00 51°17.829 2°34.035 -999 -999 -999 -999
2009-04-27 11:07:10 51°17.825 2°33.988 -999 -999 -999 -999
2009-04-27 11:07:20 51°17.82 2°33.935 -999 -999 -999 -999
2009-04-27 11:07:30 51°17.816 2°33.882 -999 -999 -999 -999
2009-04-27 11:07:40 51°17.811 2°33.829 -999 -999 -999 -999
2009-04-27 11:07:50 51°17.806 2°33.776 -999 -999 -999 -999
2009-04-27 11:08:00 51°17.801 2°33.723 -999 -999 -999 -999
2009-04-27 11:08:10 51°17.797 2°33.67 -999 -999 -999 -999
2009-04-27 11:08:20 51°17.792 2°33.618 -999 -999 -999 -999
2009-04-27 11:08:30 51°17.787 2°33.565 -999 -999 -999 -999
2009-04-27 11:08:40 51°17.783 2°33.513 -999 -999 -999 -999
2009-04-27 11:08:50 51°17.778 2°33.46 -999 -999 -999 -999
2009-04-27 11:09:00 51°17.774 2°33.407 -999 -999 -999 -999
2009-04-27 11:09:10 51°17.77 2°33.354 -999 -999 -999 -999
2009-04-27 11:09:20 51°17.763 2°33.303 -999 -999 -999 -999
2009-04-27 11:09:30 51°17.756 2°33.251 -999 -999 -999 -999
2009-04-27 11:09:40 51°17.748 2°33.2 -999 -999 -999 -999
2009-04-27 11:09:50 51°17.739 2°33.15 -999 -999 -999 -999
2009-04-27 11:10:00 51°17.729 2°33.1 -999 -999 -999 -999
2009-04-27 11:10:10 51°17.72 2°33.049 -999 -999 -999 -999
2009-04-27 11:10:20 51°17.709 2°32.999 -999 -999 -999 -999
2009-04-27 11:10:30 51°17.698 2°32.949 -999 -999 -999 -999
2009-04-27 11:10:40 51°17.686 2°32.901 -999 -999 -999 -999
2009-04-27 11:10:50 51°17.673 2°32.853 -999 -999 -999 -999
2009-04-27 11:11:00 51°17.66 2°32.805 -999 -999 -999 -999
2009-04-27 11:11:10 51°17.647 2°32.757 -999 -999 -999 -999
2009-04-27 11:11:20 51°17.634 2°32.709 -999 -999 -999 -999
2009-04-27 11:11:30 51°17.621 2°32.662 -999 -999 -999 -999
2009-04-27 11:11:40 51°17.607 2°32.614 -999 -999 -999 -999
2009-04-27 11:11:50 51°17.594 2°32.567 -999 -999 -999 -999
2009-04-27 11:12:00 51°17.581 2°32.52 -999 -999 -999 -999
2009-04-27 11:12:10 51°17.569 2°32.472 -999 -999 -999 -999
2009-04-27 11:12:20 51°17.556 2°32.424 -999 -999 -999 -999
2009-04-27 11:12:30 51°17.544 2°32.376 -999 -999 -999 -999
2009-04-27 11:12:40 51°17.532 2°32.329 -999 -999 -999 -999
2009-04-27 11:12:50 51°17.52 2°32.282 -999 -999 -999 -999
2009-04-27 11:13:00 51°17.507 2°32.234 -999 -999 -999 -999
2009-04-27 11:13:10 51°17.494 2°32.187 -999 -999 -999 -999
2009-04-27 11:13:20 51°17.481 2°32.139 -999 -999 -999 -999
2009-04-27 11:13:30 51°17.468 2°32.092 -999 -999 -999 -999
2009-04-27 11:13:40 51°17.454 2°32.044 -999 -999 -999 -999
2009-04-27 11:13:50 51°17.442 2°31.997 -999 -999 -999 -999
2009-04-27 11:14:00 51°17.429 2°31.949 -999 -999 -999 -999
2009-04-27 11:14:10 51°17.416 2°31.902 -999 -999 -999 -999
2009-04-27 11:14:20 51°17.404 2°31.854 -999 -999 -999 -999
2009-04-27 11:14:30 51°17.392 2°31.807 -999 -999 -999 -999
2009-04-27 11:14:40 51°17.379 2°31.76 -999 -999 -999 -999
2009-04-27 11:14:50 51°17.367 2°31.712 -999 -999 -999 -999
2009-04-27 11:15:00 51°17.356 2°31.664 -999 -999 -999 -999
2009-04-27 11:15:10 51°17.344 2°31.617 -999 -999 -999 -999
2009-04-27 11:15:20 51°17.332 2°31.569 -999 -999 -999 -999
2009-04-27 11:15:30 51°17.319 2°31.522 -999 -999 -999 -999
2009-04-27 11:15:40 51°17.307 2°31.474 -999 -999 -999 -999
2009-04-27 11:15:50 51°17.296 2°31.427 -999 -999 -999 -999
2009-04-27 11:16:00 51°17.283 2°31.38 -999 -999 -999 -999
2009-04-27 11:16:10 51°17.271 2°31.333 -999 -999 -999 -999
2009-04-27 11:16:20 51°17.259 2°31.286 -999 -999 -999 -999
2009-04-27 11:16:30 51°17.246 2°31.238 -999 -999 -999 -999
2009-04-27 11:16:40 51°17.234 2°31.191 -999 -999 -999 -999
2009-04-27 11:16:50 51°17.221 2°31.143 -999 -999 -999 -999
2009-04-27 11:17:00 51°17.209 2°31.096 -999 -999 -999 -999
2009-04-27 11:17:10 51°17.197 2°31.049 -999 -999 -999 -999
2009-04-27 11:17:20 51°17.184 2°31.002 -999 -999 -999 -999
2009-04-27 11:17:30 51°17.172 2°30.955 -999 -999 -999 -999
2009-04-27 11:17:40 51°17.159 2°30.909 -999 -999 -999 -999
2009-04-27 11:17:50 51°17.147 2°30.862 -999 -999 -999 -999
2009-04-27 11:18:00 51°17.134 2°30.815 -999 -999 -999 -999
2009-04-27 11:18:10 51°17.122 2°30.768 -999 -999 -999 -999
2009-04-27 11:18:20 51°17.109 2°30.721 -999 -999 -999 -999
2009-04-27 11:18:30 51°17.097 2°30.674 -999 -999 -999 -999
2009-04-27 11:18:40 51°17.084 2°30.627 -999 -999 -999 -999
2009-04-27 11:18:50 51°17.071 2°30.58 -999 -999 -999 -999
2009-04-27 11:19:00 51°17.059 2°30.532 -999 -999 -999 -999
2009-04-27 11:19:10 51°17.047 2°30.484 -999 -999 -999 -999
2009-04-27 11:19:20 51°17.031 2°30.433 -999 -999 -999 -999
2009-04-27 11:19:30 51°17.019 2°30.39 -999 -999 -999 -999
2009-04-27 11:19:40 51°17.006 2°30.338 -999 -999 -999 -999
2009-04-27 11:19:50 51°16.995 2°30.295 -999 -999 -999 -999
2009-04-27 11:20:00 51°16.982 2°30.242 -999 -999 -999 -999
2009-04-27 11:20:10 51°16.97 2°30.194 -999 -999 -999 -999
2009-04-27 11:20:20 51°16.957 2°30.146 -999 -999 -999 -999
2009-04-27 11:20:30 51°16.945 2°30.098 -999 -999 -999 -999
2009-04-27 11:20:40 51°16.932 2°30.05 -999 -999 -999 -999
2009-04-27 11:20:50 51°16.919 2°30.003 -999 -999 -999 -999
2009-04-27 11:21:00 51°16.907 2°29.956 -999 -999 -999 -999
2009-04-27 11:21:10 51°16.895 2°29.913 -999 -999 -999 -999
2009-04-27 11:21:20 51°16.883 2°29.866 -999 -999 -999 -999
2009-04-27 11:21:30 51°16.87 2°29.819 -999 -999 -999 -999
2009-04-27 11:21:40 51°16.858 2°29.771 -999 -999 -999 -999
2009-04-27 11:21:50 51°16.845 2°29.724 -999 -999 -999 -999
2009-04-27 11:22:00 51°16.833 2°29.676 -999 -999 -999 -999
2009-04-27 11:22:10 51°16.82 2°29.629 -999 -999 -999 -999
2009-04-27 11:22:20 51°16.807 2°29.581 -999 -999 -999 -999
2009-04-27 11:22:30 51°16.795 2°29.533 -999 -999 -999 -999
2009-04-27 11:22:40 51°16.783 2°29.486 -999 -999 -999 -999
2009-04-27 11:22:50 51°16.77 2°29.438 -999 -999 -999 -999
2009-04-27 11:23:00 51°16.758 2°29.39 -999 -999 -999 -999
2009-04-27 11:23:10 51°16.746 2°29.343 -999 -999 -999 -999
2009-04-27 11:23:20 51°16.733 2°29.295 -999 -999 -999 -999
2009-04-27 11:23:30 51°16.721 2°29.248 -999 -999 -999 -999
2009-04-27 11:23:40 51°16.708 2°29.2 -999 -999 -999 -999
2009-04-27 11:23:50 51°16.696 2°29.153 -999 -999 -999 -999
2009-04-27 11:24:00 51°16.684 2°29.105 -999 -999 -999 -999
2009-04-27 11:24:10 51°16.671 2°29.058 -999 -999 -999 -999
2009-04-27 11:24:20 51°16.658 2°29.01 -999 -999 -999 -999
2009-04-27 11:24:30 51°16.646 2°28.963 -999 -999 -999 -999
2009-04-27 11:24:40 51°16.633 2°28.915 -999 -999 -999 -999
2009-04-27 11:24:50 51°16.621 2°28.868 -999 -999 -999 -999
2009-04-27 11:25:00 51°16.608 2°28.821 -999 -999 -999 -999
2009-04-27 11:25:10 51°16.596 2°28.773 -999 -999 -999 -999
2009-04-27 11:25:20 51°16.583 2°28.726 -999 -999 -999 -999
2009-04-27 11:25:30 51°16.571 2°28.679 -999 -999 -999 -999
2009-04-27 11:25:40 51°16.559 2°28.632 -999 -999 -999 -999
2009-04-27 11:25:50 51°16.547 2°28.585 -999 -999 -999 -999
2009-04-27 11:26:00 51°16.534 2°28.538 -999 -999 -999 -999
2009-04-27 11:26:10 51°16.522 2°28.491 -999 -999 -999 -999
2009-04-27 11:26:20 51°16.509 2°28.444 -999 -999 -999 -999
2009-04-27 11:26:30 51°16.497 2°28.397 -999 -999 -999 -999
2009-04-27 11:26:40 51°16.485 2°28.349 -999 -999 -999 -999
2009-04-27 11:26:50 51°16.472 2°28.302 -999 -999 -999 -999
2009-04-27 11:27:00 51°16.46 2°28.255 -999 -999 -999 -999
2009-04-27 11:27:10 51°16.446 2°28.203 -999 -999 -999 -999
2009-04-27 11:27:20 51°16.434 2°28.156 -999 -999 -999 -999
2009-04-27 11:27:30 51°16.422 2°28.114 -999 -999 -999 -999
2009-04-27 11:27:40 51°16.41 2°28.067 -999 -999 -999 -999
2009-04-27 11:27:50 51°16.397 2°28.02 -999 -999 -999 -999
2009-04-27 11:28:00 51°16.385 2°27.972 -999 -999 -999 -999
2009-04-27 11:28:10 51°16.372 2°27.925 -999 -999 -999 -999
2009-04-27 11:28:20 51°16.36 2°27.877 -999 -999 -999 -999
2009-04-27 11:28:30 51°16.348 2°27.829 -999 -999 -999 -999
2009-04-27 11:28:40 51°16.335 2°27.782 -999 -999 -999 -999
2009-04-27 11:28:50 51°16.324 2°27.735 -999 -999 -999 -999
2009-04-27 11:29:00 51°16.312 2°27.688 -999 -999 -999 -999
2009-04-27 11:29:10 51°16.299 2°27.637 -999 -999 -999 -999
2009-04-27 11:29:20 51°16.286 2°27.59 -999 -999 -999 -999
2009-04-27 11:29:30 51°16.274 2°27.543 -999 -999 -999 -999
2009-04-27 11:29:40 51°16.262 2°27.497 -999 -999 -999 -999
2009-04-27 11:29:50 51°16.251 2°27.45 -999 -999 -999 -999
2009-04-27 11:30:00 51°16.241 2°27.403 -999 -999 -999 -999
2009-04-27 11:30:10 51°16.229 2°27.357 -999 -999 -999 -999
2009-04-27 11:30:20 51°16.218 2°27.311 -999 -999 -999 -999
2009-04-27 11:30:30 51°16.208 2°27.266 -999 -999 -999 -999
2009-04-27 11:30:40 51°16.197 2°27.221 -999 -999 -999 -999
2009-04-27 11:30:50 51°16.186 2°27.177 -999 -999 -999 -999
2009-04-27 11:31:00 51°16.176 2°27.133 -999 -999 -999 -999
2009-04-27 11:31:10 51°16.166 2°27.094 -999 -999 -999 -999
2009-04-27 11:31:20 51°16.156 2°27.051 -999 -999 -999 -999
2009-04-27 11:31:30 51°16.145 2°27.009 -999 -999 -999 -999
2009-04-27 11:31:40 51°16.134 2°26.968 -999 -999 -999 -999
2009-04-27 11:31:50 51°16.123 2°26.926 -999 -999 -999 -999
2009-04-27 11:32:00 51°16.112 2°26.885 -999 -999 -999 -999
2009-04-27 11:32:10 51°16.102 2°26.844 -999 -999 -999 -999
2009-04-27 11:32:20 51°16.091 2°26.802 -999 -999 -999 -999
2009-04-27 11:32:30 51°16.081 2°26.762 -999 -999 -999 -999
2009-04-27 11:32:40 51°16.071 2°26.721 -999 -999 -999 -999
2009-04-27 11:32:50 51°16.06 2°26.68 -999 -999 -999 -999
2009-04-27 11:33:00 51°16.049 2°26.64 -999 -999 -999 -999
2009-04-27 11:33:10 51°16.04 2°26.598 -999 -999 -999 -999
2009-04-27 11:33:20 51°16.032 2°26.557 -999 -999 -999 -999
2009-04-27 11:33:30 51°16.022 2°26.516 -999 -999 -999 -999
2009-04-27 11:33:40 51°16.014 2°26.475 -999 -999 -999 -999
2009-04-27 11:33:50 51°16.005 2°26.434 -999 -999 -999 -999
2009-04-27 11:34:00 51°15.997 2°26.392 -999 -999 -999 -999
2009-04-27 11:34:10 51°15.991 2°26.35 -999 -999 -999 -999
2009-04-27 11:34:20 51°15.987 2°26.308 -999 -999 -999 -999
2009-04-27 11:34:30 51°15.986 2°26.266 -999 -999 -999 -999
2009-04-27 11:34:40 51°15.987 2°26.224 -999 -999 -999 -999
2009-04-27 11:34:50 51°15.988 2°26.182 -999 -999 -999 -999
2009-04-27 11:35:00 51°15.991 2°26.14 -999 -999 -999 -999
2009-04-27 11:35:10 51°15.996 2°26.099 -999 -999 -999 -999
2009-04-27 11:35:20 51°16.004 2°26.059 -999 -999 -999 -999
2009-04-27 11:35:30 51°16.015 2°26.019 -999 -999 -999 -999
2009-04-27 11:35:40 51°16.026 2°25.98 -999 -999 -999 -999
2009-04-27 11:35:50 51°16.039 2°25.942 -999 -999 -999 -999
2009-04-27 11:36:00 51°16.053 2°25.905 -999 -999 -999 -999
2009-04-27 11:36:10 51°16.069 2°25.87 -999 -999 -999 -999
2009-04-27 11:36:20 51°16.089 2°25.833 -999 -999 -999 -999
2009-04-27 11:36:30 51°16.106 2°25.804 -999 -999 -999 -999
2009-04-27 11:36:40 51°16.125 2°25.775 -999 -999 -999 -999
2009-04-27 11:36:50 51°16.141 2°25.753 -999 -999 -999 -999
2009-04-27 11:37:00 51°16.155 2°25.736 -999 -999 -999 -999
2009-04-27 11:37:10 51°16.166 2°25.721 -999 -999 -999 -999
2009-04-27 11:37:20 51°16.174 2°25.709 -999 -999 -999 -999
2009-04-27 11:37:30 51°16.18 2°25.699 -999 -999 -999 -999
2009-04-27 11:37:40 51°16.185 2°25.691 -999 -999 -999 -999
2009-04-27 11:37:50 51°16.188 2°25.686 -999 -999 -999 -999
2009-04-27 11:38:00 51°16.192 2°25.683 -999 -999 -999 -999
2009-04-27 11:38:10 51°16.194 2°25.682 -999 -999 -999 -999
2009-04-27 11:38:20 51°16.197 2°25.682 -999 -999 -999 -999
2009-04-27 11:38:30 51°16.2 2°25.683 -999 -999 -999 -999
2009-04-27 11:38:40 51°16.202 2°25.685 -999 -999 -999 -999
2009-04-27 11:38:50 51°16.204 2°25.688 -999 -999 -999 -999
2009-04-27 11:39:00 51°16.207 2°25.693 -999 -999 -999 -999
2009-04-27 11:39:10 51°16.209 2°25.698 -999 -999 -999 -999
2009-04-27 11:39:20 51°16.211 2°25.703 -999 -999 -999 -999
2009-04-27 11:39:30 51°16.212 2°25.708 -999 -999 -999 -999
2009-04-27 11:39:40 51°16.214 2°25.713 -999 -999 -999 -999
2009-04-27 11:39:50 51°16.216 2°25.719 -999 -999 -999 -999
2009-04-27 11:40:00 51°16.218 2°25.725 -999 -999 -999 -999
2009-04-27 11:40:10 51°16.219 2°25.731 -999 -999 -999 -999
2009-04-27 11:40:20 51°16.221 2°25.737 -999 -999 -999 -999
2009-04-27 11:40:30 51°16.223 2°25.744 -999 -999 -999 -999
2009-04-27 11:40:40 51°16.224 2°25.751 -999 -999 -999 -999
2009-04-27 11:40:50 51°16.226 2°25.758 -999 -999 -999 -999
2009-04-27 11:41:00 51°16.227 2°25.766 -999 -999 -999 -999
2009-04-27 11:41:10 51°16.229 2°25.775 -999 -999 -999 -999
2009-04-27 11:41:20 51°16.23 2°25.783 -999 -999 -999 -999
2009-04-27 11:41:30 51°16.232 2°25.792 -999 -999 -999 -999
2009-04-27 11:41:40 51°16.233 2°25.802 -999 -999 -999 -999
2009-04-27 11:41:50 51°16.235 2°25.812 -999 -999 -999 -999
2009-04-27 11:42:00 51°16.236 2°25.823 -999 -999 -999 -999
2009-04-27 11:42:10 51°16.237 2°25.833 -999 -999 -999 -999
2009-04-27 11:42:20 51°16.239 2°25.843 -999 -999 -999 -999
2009-04-27 11:42:30 51°16.24 2°25.854 -999 -999 -999 -999
2009-04-27 11:42:40 51°16.241 2°25.864 -999 -999 -999 -999
2009-04-27 11:42:50 51°16.242 2°25.874 -999 -999 -999 -999
2009-04-27 11:43:00 51°16.243 2°25.884 -999 -999 -999 -999
2009-04-27 11:43:10 51°16.243 2°25.896 -999 -999 -999 -999
2009-04-27 11:43:20 51°16.244 2°25.906 -999 -999 -999 -999
2009-04-27 11:43:30 51°16.245 2°25.917 -999 -999 -999 -999
2009-04-27 11:43:40 51°16.246 2°25.928 -999 -999 -999 -999
2009-04-27 11:43:50 51°16.246 2°25.94 -999 -999 -999 -999
2009-04-27 11:44:00 51°16.247 2°25.952 -999 -999 -999 -999
2009-04-27 11:44:10 51°16.247 2°25.964 -999 -999 -999 -999
2009-04-27 11:44:20 51°16.248 2°25.975 -999 -999 -999 -999
2009-04-27 11:44:30 51°16.248 2°25.986 -999 -999 -999 -999
2009-04-27 11:44:40 51°16.249 2°25.997 -999 -999 -999 -999
2009-04-27 11:44:50 51°16.249 2°26.009 -999 -999 -999 -999
2009-04-27 11:45:00 51°16.25 2°26.019 -999 -999 -999 -999
2009-04-27 11:45:10 51°16.251 2°26.031 -999 -999 -999 -999
2009-04-27 11:45:20 51°16.251 2°26.041 -999 -999 -999 -999
2009-04-27 11:45:30 51°16.251 2°26.054 -999 -999 -999 -999
2009-04-27 11:45:40 51°16.251 2°26.065 -999 -999 -999 -999
2009-04-27 11:45:50 51°16.252 2°26.078 -999 -999 -999 -999
2009-04-27 11:46:00 51°16.252 2°26.089 -999 -999 -999 -999
2009-04-27 11:46:10 51°16.252 2°26.101 -999 -999 -999 -999
2009-04-27 11:46:20 51°16.252 2°26.112 -999 -999 -999 -999
2009-04-27 11:46:30 51°16.252 2°26.124 -999 -999 -999 -999
2009-04-27 11:46:40 51°16.253 2°26.135 -999 -999 -999 -999
2009-04-27 11:46:50 51°16.253 2°26.148 -999 -999 -999 -999
2009-04-27 11:47:00 51°16.254 2°26.16 -999 -999 -999 -999
2009-04-27 11:47:10 51°16.254 2°26.17 -999 -999 -999 -999
2009-04-27 11:47:20 51°16.255 2°26.182 -999 -999 -999 -999
2009-04-27 11:47:30 51°16.256 2°26.192 -999 -999 -999 -999
2009-04-27 11:47:40 51°16.259 2°26.201 -999 -999 -999 -999
2009-04-27 11:47:50 51°16.263 2°26.208 -999 -999 -999 -999
2009-04-27 11:48:00 51°16.269 2°26.212 -999 -999 -999 -999
2009-04-27 11:48:10 51°16.277 2°26.209 -999 -999 -999 -999
2009-04-27 11:48:20 51°16.288 2°26.199 -999 -999 -999 -999
2009-04-27 11:48:30 51°16.299 2°26.184 -999 -999 -999 -999
2009-04-27 11:48:40 51°16.311 2°26.164 -999 -999 -999 -999
2009-04-27 11:48:50 51°16.325 2°26.139 -999 -999 -999 -999
2009-04-27 11:49:00 51°16.34 2°26.109 -999 -999 -999 -999
2009-04-27 11:49:10 51°16.355 2°26.078 -999 -999 -999 -999
2009-04-27 11:49:20 51°16.37 2°26.046 -999 -999 -999 -999
2009-04-27 11:49:30 51°16.385 2°26.013 -999 -999 -999 -999
2009-04-27 11:49:40 51°16.401 2°25.979 -999 -999 -999 -999
2009-04-27 11:49:50 51°16.419 2°25.941 -999 -999 -999 -999
2009-04-27 11:50:00 51°16.436 2°25.907 -999 -999 -999 -999
2009-04-27 11:50:10 51°16.452 2°25.877 -999 -999 -999 -999
2009-04-27 11:50:20 51°16.471 2°25.845 -999 -999 -999 -999
2009-04-27 11:50:30 51°16.492 2°25.813 -999 -999 -999 -999
2009-04-27 11:50:40 51°16.514 2°25.783 -999 -999 -999 -999
2009-04-27 11:50:50 51°16.538 2°25.757 -999 -999 -999 -999
2009-04-27 11:51:00 51°16.563 2°25.731 -999 -999 -999 -999
2009-04-27 11:51:10 51°16.591 2°25.711 -999 -999 -999 -999
2009-04-27 11:51:20 51°16.621 2°25.698 -999 -999 -999 -999
2009-04-27 11:51:30 51°16.653 2°25.691 -999 -999 -999 -999
2009-04-27 11:51:40 51°16.685 2°25.688 -999 -999 -999 -999
2009-04-27 11:51:50 51°16.717 2°25.685 -999 -999 -999 -999
2009-04-27 11:52:00 51°16.751 2°25.688 -999 -999 -999 -999
2009-04-27 11:52:10 51°16.784 2°25.692 -999 -999 -999 -999
2009-04-27 11:52:20 51°16.818 2°25.7 -999 -999 -999 -999
2009-04-27 11:52:30 51°16.852 2°25.714 -999 -999 -999 -999
2009-04-27 11:52:40 51°16.885 2°25.73 -999 -999 -999 -999
2009-04-27 11:52:50 51°16.918 2°25.748 -999 -999 -999 -999
2009-04-27 11:53:00 51°16.95 2°25.772 -999 -999 -999 -999
2009-04-27 11:53:10 51°16.985 2°25.8 -999 -999 -999 -999
2009-04-27 11:53:20 51°17.016 2°25.826 -999 -999 -999 -999
2009-04-27 11:53:30 51°17.048 2°25.85 -999 -999 -999 -999
2009-04-27 11:53:40 51°17.079 2°25.877 -999 -999 -999 -999
2009-04-27 11:53:50 51°17.109 2°25.905 -999 -999 -999 -999
2009-04-27 11:54:00 51°17.136 2°25.93 -999 -999 -999 -999
2009-04-27 11:54:10 51°17.17 2°25.962 -999 -999 -999 -999
2009-04-27 11:54:20 51°17.199 2°25.994 -999 -999 -999 -999
2009-04-27 11:54:30 51°17.229 2°26.027 -999 -999 -999 -999
2009-04-27 11:54:40 51°17.258 2°26.061 -999 -999 -999 -999
2009-04-27 11:54:50 51°17.286 2°26.097 -999 -999 -999 -999
2009-04-27 11:55:00 51°17.312 2°26.136 -999 -999 -999 -999
2009-04-27 11:55:10 51°17.34 2°26.174 -999 -999 -999 -999
2009-04-27 11:55:20 51°17.367 2°26.213 -999 -999 -999 -999
2009-04-27 11:55:30 51°17.392 2°26.247 -999 -999 -999 -999
2009-04-27 11:55:40 51°17.418 2°26.286 -999 -999 -999 -999
2009-04-27 11:55:50 51°17.444 2°26.328 -999 -999 -999 -999
2009-04-27 11:56:00 51°17.47 2°26.366 -999 -999 -999 -999
2009-04-27 11:56:10 51°17.497 2°26.404 -999 -999 -999 -999
2009-04-27 11:56:20 51°17.526 2°26.447 -999 -999 -999 -999
2009-04-27 11:56:30 51°17.549 2°26.484 -999 -999 -999 -999
2009-04-27 11:56:40 51°17.577 2°26.529 -999 -999 -999 -999
2009-04-27 11:56:50 51°17.602 2°26.563 -999 -999 -999 -999
2009-04-27 11:57:00 51°17.628 2°26.603 -999 -999 -999 -999
2009-04-27 11:57:10 51°17.655 2°26.642 -999 -999 -999 -999
2009-04-27 11:57:20 51°17.684 2°26.686 -999 -999 -999 -999
2009-04-27 11:57:30 51°17.709 2°26.721 -999 -999 -999 -999
2009-04-27 11:57:40 51°17.739 2°26.765 -999 -999 -999 -999
2009-04-27 11:57:50 51°17.763 2°26.799 -999 -999 -999 -999
2009-04-27 11:58:00 51°17.794 2°26.842 -999 -999 -999 -999
2009-04-27 11:58:10 51°17.821 2°26.881 -999 -999 -999 -999
2009-04-27 11:58:20 51°17.848 2°26.92 -999 -999 -999 -999
2009-04-27 11:58:30 51°17.874 2°26.96 -999 -999 -999 -999
2009-04-27 11:58:40 51°17.902 2°26.997 -999 -999 -999 -999
2009-04-27 11:58:50 51°17.929 2°27.036 -999 -999 -999 -999
2009-04-27 11:59:00 51°17.956 2°27.075 -999 -999 -999 -999
2009-04-27 11:59:10 51°17.983 2°27.114 -999 -999 -999 -999
2009-04-27 11:59:20 51°18.011 2°27.153 -999 -999 -999 -999
2009-04-27 11:59:30 51°18.037 2°27.193 -999 -999 -999 -999
2009-04-27 11:59:40 51°18.063 2°27.235 -999 -999 -999 -999
2009-04-27 11:59:50 51°18.089 2°27.277 -999 -999 -999 -999
2009-04-27 13:00:00 51°26.31 2°23.89 -999 -999 -999 -999
2009-04-27 13:00:10 51°26.335 2°23.859 -999 -999 -999 -999
2009-04-27 13:00:20 51°26.363 2°23.823 -999 -999 -999 -999
2009-04-27 13:00:30 51°26.386 2°23.794 -999 -999 -999 -999
2009-04-27 13:00:40 51°26.413 2°23.759 -999 -999 -999 -999
2009-04-27 13:00:50 51°26.436 2°23.73 -999 -999 -999 -999
2009-04-27 13:01:00 51°26.463 2°23.694 -999 -999 -999 -999
2009-04-27 13:01:10 51°26.486 2°23.664 -999 -999 -999 -999
2009-04-27 13:01:20 51°26.511 2°23.631 -999 -999 -999 -999
2009-04-27 13:01:30 51°26.536 2°23.599 -999 -999 -999 -999
2009-04-27 13:01:40 51°26.56 2°23.567 -999 -999 -999 -999
2009-04-27 13:01:50 51°26.585 2°23.535 -999 -999 -999 -999
2009-04-27 13:02:00 51°26.609 2°23.502 -999 -999 -999 -999
2009-04-27 13:02:10 51°26.634 2°23.471 -999 -999 -999 -999
2009-04-27 13:02:20 51°26.659 2°23.439 -999 -999 -999 -999
2009-04-27 13:02:30 51°26.683 2°23.406 -999 -999 -999 -999
2009-04-27 13:02:40 51°26.707 2°23.374 -999 -999 -999 -999
2009-04-27 13:02:50 51°26.731 2°23.342 -999 -999 -999 -999
2009-04-27 13:03:00 51°26.755 2°23.309 -999 -999 -999 -999
2009-04-27 13:03:10 51°26.778 2°23.275 -999 -999 -999 -999
2009-04-27 13:03:20 51°26.8 2°23.242 -999 -999 -999 -999
2009-04-27 13:03:30 51°26.822 2°23.207 -999 -999 -999 -999
2009-04-27 13:03:40 51°26.843 2°23.173 -999 -999 -999 -999
2009-04-27 13:03:50 51°26.864 2°23.139 -999 -999 -999 -999
2009-04-27 13:04:00 51°26.885 2°23.104 -999 -999 -999 -999
2009-04-27 13:04:10 51°26.905 2°23.068 -999 -999 -999 -999
2009-04-27 13:04:20 51°26.928 2°23.029 -999 -999 -999 -999
2009-04-27 13:04:30 51°26.945 2°22.996 -999 -999 -999 -999
2009-04-27 13:04:40 51°26.965 2°22.96 -999 -999 -999 -999
2009-04-27 13:04:50 51°26.985 2°22.925 -999 -999 -999 -999
2009-04-27 13:05:00 51°27.006 2°22.889 -999 -999 -999 -999
2009-04-27 13:05:10 51°27.026 2°22.852 -999 -999 -999 -999
2009-04-27 13:05:20 51°27.047 2°22.817 -999 -999 -999 -999
2009-04-27 13:05:30 51°27.067 2°22.781 -999 -999 -999 -999
2009-04-27 13:05:40 51°27.089 2°22.745 -999 -999 -999 -999
2009-04-27 13:05:50 51°27.11 2°22.71 -999 -999 -999 -999
2009-04-27 13:06:00 51°27.132 2°22.675 -999 -999 -999 -999
2009-04-27 13:06:10 51°27.153 2°22.639 -999 -999 -999 -999
2009-04-27 13:06:20 51°27.173 2°22.602 -999 -999 -999 -999
2009-04-27 13:06:30 51°27.193 2°22.566 -999 -999 -999 -999
2009-04-27 13:06:40 51°27.213 2°22.529 -999 -999 -999 -999
2009-04-27 13:06:50 51°27.234 2°22.492 -999 -999 -999 -999
2009-04-27 13:07:00 51°27.256 2°22.451 -999 -999 -999 -999
2009-04-27 13:07:10 51°27.275 2°22.413 -999 -999 -999 -999
2009-04-27 13:07:20 51°27.295 2°22.375 -999 -999 -999 -999
2009-04-27 13:07:30 51°27.315 2°22.337 -999 -999 -999 -999
2009-04-27 13:07:40 51°27.336 2°22.299 -999 -999 -999 -999
2009-04-27 13:07:50 51°27.356 2°22.261 -999 -999 -999 -999
2009-04-27 13:08:00 51°27.376 2°22.223 -999 -999 -999 -999
2009-04-27 13:08:10 51°27.393 2°22.188 -999 -999 -999 -999
2009-04-27 13:08:20 51°27.413 2°22.149 -999 -999 -999 -999
2009-04-27 13:08:30 51°27.433 2°22.111 -999 -999 -999 -999
2009-04-27 13:08:40 51°27.453 2°22.073 -999 -999 -999 -999
2009-04-27 13:08:50 51°27.473 2°22.034 -999 -999 -999 -999
2009-04-27 13:09:00 51°27.492 2°21.995 -999 -999 -999 -999
2009-04-27 13:09:10 51°27.512 2°21.956 -999 -999 -999 -999
2009-04-27 13:09:20 51°27.532 2°21.918 -999 -999 -999 -999
2009-04-27 13:09:30 51°27.552 2°21.88 -999 -999 -999 -999
2009-04-27 13:09:40 51°27.572 2°21.842 -999 -999 -999 -999
2009-04-27 13:09:50 51°27.591 2°21.803 -999 -999 -999 -999
2009-04-27 13:10:00 51°27.611 2°21.764 -999 -999 -999 -999
2009-04-27 13:10:10 51°27.63 2°21.725 -999 -999 -999 -999
2009-04-27 13:10:20 51°27.649 2°21.685 -999 -999 -999 -999
2009-04-27 13:10:30 51°27.669 2°21.646 -999 -999 -999 -999
2009-04-27 13:10:40 51°27.689 2°21.607 -999 -999 -999 -999
2009-04-27 13:10:50 51°27.708 2°21.567 -999 -999 -999 -999
2009-04-27 13:11:00 51°27.728 2°21.528 -999 -999 -999 -999
2009-04-27 13:11:10 51°27.747 2°21.489 -999 -999 -999 -999
2009-04-27 13:11:20 51°27.767 2°21.451 -999 -999 -999 -999
2009-04-27 13:11:30 51°27.786 2°21.416 -999 -999 -999 -999
2009-04-27 13:11:40 51°27.804 2°21.382 -999 -999 -999 -999
2009-04-27 13:11:50 51°27.822 2°21.349 -999 -999 -999 -999
2009-04-27 13:12:00 51°27.839 2°21.316 -999 -999 -999 -999
2009-04-27 13:12:10 51°27.857 2°21.283 -999 -999 -999 -999
2009-04-27 13:12:20 51°27.874 2°21.25 -999 -999 -999 -999
2009-04-27 13:12:30 51°27.892 2°21.217 -999 -999 -999 -999
2009-04-27 13:12:40 51°27.91 2°21.184 -999 -999 -999 -999
2009-04-27 13:12:50 51°27.927 2°21.154 -999 -999 -999 -999
2009-04-27 13:13:00 51°27.944 2°21.126 -999 -999 -999 -999
2009-04-27 13:13:10 51°27.962 2°21.096 -999 -999 -999 -999
2009-04-27 13:13:20 51°27.975 2°21.071 -999 -999 -999 -999
2009-04-27 13:13:30 51°27.989 2°21.049 -999 -999 -999 -999
2009-04-27 13:13:40 51°27.999 2°21.031 -999 -999 -999 -999
2009-04-27 13:13:50 51°28.008 2°21.017 -999 -999 -999 -999
2009-04-27 13:14:00 51°28.015 2°21.006 -999 -999 -999 -999
2009-04-27 13:14:10 51°28.02 2°21 -999 -999 -999 -999
2009-04-27 13:14:20 51°28.025 2°20.996 -999 -999 -999 -999
2009-04-27 13:14:30 51°28.03 2°20.995 -999 -999 -999 -999
2009-04-27 13:14:40 51°28.034 2°20.995 -999 -999 -999 -999
2009-04-27 13:14:50 51°28.039 2°20.996 -999 -999 -999 -999
2009-04-27 13:15:00 51°28.044 2°20.997 -999 -999 -999 -999
2009-04-27 13:15:10 51°28.048 2°20.998 -999 -999 -999 -999
2009-04-27 13:15:20 51°28.053 2°21 -999 -999 -999 -999
2009-04-27 13:15:30 51°28.058 2°21.003 -999 -999 -999 -999
2009-04-27 13:15:40 51°28.062 2°21.006 -999 -999 -999 -999
2009-04-27 13:15:50 51°28.067 2°21.009 -999 -999 -999 -999
2009-04-27 13:16:00 51°28.071 2°21.012 -999 -999 -999 -999
2009-04-27 13:16:10 51°28.076 2°21.016 -999 -999 -999 -999
2009-04-27 13:16:20 51°28.081 2°21.02 -999 -999 -999 -999
2009-04-27 13:16:30 51°28.086 2°21.025 -999 -999 -999 -999
2009-04-27 13:16:40 51°28.091 2°21.03 -999 -999 -999 -999
2009-04-27 13:16:50 51°28.096 2°21.035 -999 -999 -999 -999
2009-04-27 13:17:00 51°28.101 2°21.04 -999 -999 -999 -999
2009-04-27 13:17:10 51°28.106 2°21.045 -999 -999 -999 -999
2009-04-27 13:17:20 51°28.111 2°21.051 -999 -999 -999 -999
2009-04-27 13:17:30 51°28.117 2°21.057 -999 -999 -999 -999
2009-04-27 13:17:40 51°28.122 2°21.063 -999 -999 -999 -999
2009-04-27 13:17:50 51°28.127 2°21.068 -999 -999 -999 -999
2009-04-27 13:18:00 51°28.132 2°21.075 -999 -999 -999 -999
2009-04-27 13:18:10 51°28.138 2°21.081 -999 -999 -999 -999
2009-04-27 13:18:20 51°28.143 2°21.088 -999 -999 -999 -999
2009-04-27 13:18:30 51°28.149 2°21.094 -999 -999 -999 -999
2009-04-27 13:18:40 51°28.154 2°21.102 -999 -999 -999 -999
2009-04-27 13:18:50 51°28.159 2°21.109 -999 -999 -999 -999
2009-04-27 13:19:00 51°28.164 2°21.116 -999 -999 -999 -999
2009-04-27 13:19:10 51°28.169 2°21.123 -999 -999 -999 -999
2009-04-27 13:19:20 51°28.175 2°21.131 -999 -999 -999 -999
2009-04-27 13:19:30 51°28.18 2°21.138 -999 -999 -999 -999
2009-04-27 13:19:40 51°28.185 2°21.146 -999 -999 -999 -999
2009-04-27 13:19:50 51°28.19 2°21.154 -999 -999 -999 -999
2009-04-27 13:20:00 51°28.195 2°21.162 -999 -999 -999 -999
2009-04-27 13:20:10 51°28.2 2°21.169 -999 -999 -999 -999
2009-04-27 13:20:20 51°28.205 2°21.177 -999 -999 -999 -999
2009-04-27 13:20:30 51°28.209 2°21.185 -999 -999 -999 -999
2009-04-27 13:20:40 51°28.215 2°21.192 -999 -999 -999 -999
2009-04-27 13:20:50 51°28.219 2°21.2 -999 -999 -999 -999
2009-04-27 13:21:00 51°28.224 2°21.207 -999 -999 -999 -999
2009-04-27 13:21:10 51°28.229 2°21.215 -999 -999 -999 -999
2009-04-27 13:21:20 51°28.234 2°21.223 -999 -999 -999 -999
2009-04-27 13:21:30 51°28.239 2°21.231 -999 -999 -999 -999
2009-04-27 13:21:40 51°28.244 2°21.238 -999 -999 -999 -999
2009-04-27 13:21:50 51°28.249 2°21.246 -999 -999 -999 -999
2009-04-27 13:22:00 51°28.254 2°21.254 -999 -999 -999 -999
2009-04-27 13:22:10 51°28.26 2°21.261 -999 -999 -999 -999
2009-04-27 13:22:20 51°28.265 2°21.269 -999 -999 -999 -999
2009-04-27 13:22:30 51°28.27 2°21.276 -999 -999 -999 -999
2009-04-27 13:22:40 51°28.275 2°21.283 -999 -999 -999 -999
2009-04-27 13:22:50 51°28.28 2°21.29 -999 -999 -999 -999
2009-04-27 13:23:00 51°28.285 2°21.297 -999 -999 -999 -999
2009-04-27 13:23:10 51°28.29 2°21.304 -999 -999 -999 -999
2009-04-27 13:23:20 51°28.295 2°21.311 -999 -999 -999 -999
2009-04-27 13:23:30 51°28.3 2°21.318 -999 -999 -999 -999
2009-04-27 13:23:40 51°28.305 2°21.325 -999 -999 -999 -999
2009-04-27 13:23:50 51°28.31 2°21.333 -999 -999 -999 -999
2009-04-27 13:24:00 51°28.315 2°21.34 -999 -999 -999 -999
2009-04-27 13:24:10 51°28.321 2°21.348 -999 -999 -999 -999
2009-04-27 13:24:20 51°28.326 2°21.355 -999 -999 -999 -999
2009-04-27 13:24:30 51°28.331 2°21.363 -999 -999 -999 -999
2009-04-27 13:24:40 51°28.336 2°21.37 -999 -999 -999 -999
2009-04-27 13:24:50 51°28.34 2°21.375 -999 -999 -999 -999
2009-04-27 13:25:00 51°28.346 2°21.378 -999 -999 -999 -999
2009-04-27 13:25:10 51°28.352 2°21.379 -999 -999 -999 -999
2009-04-27 13:25:20 51°28.357 2°21.377 -999 -999 -999 -999
2009-04-27 13:25:30 51°28.361 2°21.372 -999 -999 -999 -999
2009-04-27 13:25:40 51°28.363 2°21.366 -999 -999 -999 -999
2009-04-27 13:25:50 51°28.364 2°21.36 -999 -999 -999 -999
2009-04-27 13:26:00 51°28.362 2°21.355 -999 -999 -999 -999
2009-04-27 13:26:10 51°28.359 2°21.353 -999 -999 -999 -999
2009-04-27 13:26:20 51°28.353 2°21.353 -999 -999 -999 -999
2009-04-27 13:26:30 51°28.345 2°21.355 -999 -999 -999 -999
2009-04-27 13:26:40 51°28.335 2°21.358 -999 -999 -999 -999
2009-04-27 13:26:50 51°28.324 2°21.363 -999 -999 -999 -999
2009-04-27 13:27:00 51°28.312 2°21.369 -999 -999 -999 -999
2009-04-27 13:27:10 51°28.299 2°21.372 -999 -999 -999 -999
2009-04-27 13:27:20 51°28.285 2°21.374 -999 -999 -999 -999
2009-04-27 13:27:30 51°28.271 2°21.373 -999 -999 -999 -999
2009-04-27 13:27:40 51°28.257 2°21.367 -999 -999 -999 -999
2009-04-27 13:27:50 51°28.245 2°21.359 -999 -999 -999 -999
2009-04-27 13:28:00 51°28.232 2°21.348 -999 -999 -999 -999
2009-04-27 13:28:10 51°28.217 2°21.335 -999 -999 -999 -999
2009-04-27 13:28:20 51°28.205 2°21.324 -999 -999 -999 -999
2009-04-27 13:28:30 51°28.193 2°21.313 -999 -999 -999 -999
2009-04-27 13:28:40 51°28.181 2°21.302 -999 -999 -999 -999
2009-04-27 13:28:50 51°28.17 2°21.29 -999 -999 -999 -999
2009-04-27 13:29:00 51°28.16 2°21.278 -999 -999 -999 -999
2009-04-27 13:29:10 51°28.149 2°21.267 -999 -999 -999 -999
2009-04-27 13:29:20 51°28.14 2°21.257 -999 -999 -999 -999
2009-04-27 13:29:30 51°28.13 2°21.247 -999 -999 -999 -999
2009-04-27 13:29:40 51°28.119 2°21.236 -999 -999 -999 -999
2009-04-27 13:29:50 51°28.11 2°21.227 -999 -999 -999 -999
2009-04-27 13:30:00 51°28.101 2°21.219 -999 -999 -999 -999
2009-04-27 13:30:10 51°28.092 2°21.211 -999 -999 -999 -999
2009-04-27 13:30:20 51°28.084 2°21.204 -999 -999 -999 -999
2009-04-27 13:30:30 51°28.078 2°21.198 -999 -999 -999 -999
2009-04-27 13:30:40 51°28.072 2°21.191 -999 -999 -999 -999
2009-04-27 13:30:50 51°28.067 2°21.186 -999 -999 -999 -999
2009-04-27 13:31:00 51°28.064 2°21.179 -999 -999 -999 -999
2009-04-27 13:31:10 51°28.06 2°21.172 -999 -999 -999 -999
2009-04-27 13:31:20 51°28.058 2°21.164 -999 -999 -999 -999
2009-04-27 13:31:30 51°28.058 2°21.159 -999 -999 -999 -999
2009-04-27 13:31:40 51°28.059 2°21.155 -999 -999 -999 -999
2009-04-27 13:31:50 51°28.06 2°21.15 -999 -999 -999 -999
2009-04-27 13:32:00 51°28.061 2°21.145 -999 -999 -999 -999
2009-04-27 13:32:10 51°28.061 2°21.139 -999 -999 -999 -999
2009-04-27 13:32:20 51°28.06 2°21.133 -999 -999 -999 -999
2009-04-27 13:32:30 51°28.059 2°21.127 -999 -999 -999 -999
2009-04-27 13:32:40 51°28.058 2°21.121 -999 -999 -999 -999
2009-04-27 13:32:50 51°28.057 2°21.114 -999 -999 -999 -999
2009-04-27 13:33:00 51°28.055 2°21.107 -999 -999 -999 -999
2009-04-27 13:33:10 51°28.05 2°21.097 -999 -999 -999 -999
2009-04-27 13:33:20 51°28.044 2°21.083 -999 -999 -999 -999
2009-04-27 13:33:30 51°28.036 2°21.067 -999 -999 -999 -999
2009-04-27 13:33:40 51°28.028 2°21.05 -999 -999 -999 -999
2009-04-27 13:33:50 51°28.022 2°21.033 -999 -999 -999 -999
2009-04-27 13:34:00 51°28.017 2°21.021 -999 -999 -999 -999
2009-04-27 13:34:10 51°28.013 2°21.012 -999 -999 -999 -999
2009-04-27 13:34:20 51°28.013 2°21.008 -999 -999 -999 -999
2009-04-27 13:34:30 51°28.013 2°21.006 -999 -999 -999 -999
2009-04-27 13:34:40 51°28.013 2°21.006 -999 -999 -999 -999
2009-04-27 13:34:50 51°28.014 2°21.006 -999 -999 -999 -999
2009-04-27 13:35:00 51°28.015 2°21.007 -999 -999 -999 -999
2009-04-27 13:35:10 51°28.017 2°21.009 -999 -999 -999 -999
2009-04-27 13:35:20 51°28.02 2°21.012 -999 -999 -999 -999
2009-04-27 13:35:30 51°28.023 2°21.014 -999 -999 -999 -999
2009-04-27 13:35:40 51°28.026 2°21.018 -999 -999 -999 -999
2009-04-27 13:35:50 51°28.03 2°21.022 -999 -999 -999 -999
2009-04-27 13:36:00 51°28.034 2°21.026 -999 -999 -999 -999
2009-04-27 13:36:10 51°28.038 2°21.03 -999 -999 -999 -999
2009-04-27 13:36:20 51°28.042 2°21.035 -999 -999 -999 -999
2009-04-27 13:36:30 51°28.047 2°21.039 -999 -999 -999 -999
2009-04-27 13:36:40 51°28.052 2°21.045 -999 -999 -999 -999
2009-04-27 13:36:50 51°28.057 2°21.05 -999 -999 -999 -999
2009-04-27 13:37:00 51°28.062 2°21.056 -999 -999 -999 -999
2009-04-27 13:37:10 51°28.067 2°21.061 -999 -999 -999 -999
2009-04-27 13:37:20 51°28.072 2°21.067 -999 -999 -999 -999
2009-04-27 13:37:30 51°28.078 2°21.073 -999 -999 -999 -999
2009-04-27 13:37:40 51°28.083 2°21.08 -999 -999 -999 -999
2009-04-27 13:37:50 51°28.088 2°21.086 -999 -999 -999 -999
2009-04-27 13:38:00 51°28.094 2°21.093 -999 -999 -999 -999
2009-04-27 13:38:10 51°28.1 2°21.1 -999 -999 -999 -999
2009-04-27 13:38:20 51°28.105 2°21.107 -999 -999 -999 -999
2009-04-27 13:38:30 51°28.11 2°21.114 -999 -999 -999 -999
2009-04-27 13:38:40 51°28.115 2°21.12 -999 -999 -999 -999
2009-04-27 13:38:50 51°28.12 2°21.127 -999 -999 -999 -999
2009-04-27 13:39:00 51°28.125 2°21.134 -999 -999 -999 -999
2009-04-27 13:39:10 51°28.13 2°21.143 -999 -999 -999 -999
2009-04-27 13:39:20 51°28.135 2°21.151 -999 -999 -999 -999
2009-04-27 13:39:30 51°28.14 2°21.159 -999 -999 -999 -999
2009-04-27 13:39:40 51°28.144 2°21.167 -999 -999 -999 -999
2009-04-27 13:39:50 51°28.149 2°21.174 -999 -999 -999 -999
2009-04-27 13:40:00 51°28.154 2°21.182 -999 -999 -999 -999
2009-04-27 13:40:10 51°28.159 2°21.19 -999 -999 -999 -999
2009-04-27 13:40:20 51°28.164 2°21.197 -999 -999 -999 -999
2009-04-27 13:40:30 51°28.169 2°21.204 -999 -999 -999 -999
2009-04-27 13:40:40 51°28.175 2°21.21 -999 -999 -999 -999
2009-04-27 13:40:50 51°28.18 2°21.217 -999 -999 -999 -999
2009-04-27 13:41:00 51°28.185 2°21.224 -999 -999 -999 -999
2009-04-27 13:41:10 51°28.19 2°21.23 -999 -999 -999 -999
2009-04-27 13:41:20 51°28.196 2°21.236 -999 -999 -999 -999
2009-04-27 13:41:30 51°28.201 2°21.242 -999 -999 -999 -999
2009-04-27 13:41:40 51°28.207 2°21.247 -999 -999 -999 -999
2009-04-27 13:41:50 51°28.212 2°21.253 -999 -999 -999 -999
2009-04-27 13:42:00 51°28.218 2°21.258 -999 -999 -999 -999
2009-04-27 13:42:10 51°28.223 2°21.263 -999 -999 -999 -999
2009-04-27 13:42:20 51°28.229 2°21.268 -999 -999 -999 -999
2009-04-27 13:42:30 51°28.235 2°21.273 -999 -999 -999 -999
2009-04-27 13:42:40 51°28.241 2°21.278 -999 -999 -999 -999
2009-04-27 13:42:50 51°28.247 2°21.282 -999 -999 -999 -999
2009-04-27 13:43:00 51°28.253 2°21.287 -999 -999 -999 -999
2009-04-27 13:43:10 51°28.258 2°21.292 -999 -999 -999 -999